Regional Weather Roundup
Issued by NWS

Home | Current Version | Previous Version | Text Only | Print | Product List | Glossary On
Versions: 1 2 3 4 5 6 7 8 9 10 11 12 13 14 15 16 17 18 19 20 21 22 23 24 25 26 27 28 29 30 31 32 33 34 35 36 37 38 39 40 41 42 43 44 45 46 47 48 49 50
000
ASUS42 KKEY 311110
RWRKEY

FLORIDA REGIONAL WEATHER ROUNDUP FOR THE FLORIDA KEYS
NATIONAL WEATHER SERVICE KEY WEST FLORIDA
700 AM EDT MON AUG 31 2015

...SOUTH FLORIDA AND THE KEYS...

CITY           SKY/WX    TMP DP  RH WIND       PRES   REMARKS
FORT MYERS     CLOUDY    76  75  97 SE8       29.97S
SW REGIONAL AP MOCLDY    77  75  93 SE6       29.98S
NAPLES         MOCLDY    78  75  90 E6        29.98R
MIAMI          PTCLDY    79  73  82 SE5       30.01R
WEST KENDALL   CLEAR     77  75  93 SE3         N/A
HOMESTEAD      CLEAR     79  74  85 E6        29.99S
MARATHON       PTCLDY    82  76  81 SE6       29.99R
BOCA CHICA NAS MOCLDY    82  74  76 S10       29.98R
KEY WEST INTL  PTCLDY    83  74  74 S12       29.98R

...INTERNATIONAL WEATHER...

CITY           SKY/WX    TMP DP  RH WIND       PRES   REMARKS
NASSAU BAHAMAS MOCLDY    79  75  89 CALM      30.04R
CANCUN MEXICO  MOCLDY    77  77 100 N3        29.93R
COZUMEL MEXICO PTCLDY    75  75 100 CALM      29.92S

ADJACENT COASTAL WATERS...

STATION/POSITION TIME  SKY/WX   TEMP    WIND        PRES    WAVE
                                AIR SEA DIR/SP/G            HT/PER
                 (UTC)          (F)     (DEG/KT/KT) (MB)    (FT/S)
PULASKI SHOAL LI 1000                                 N/A
SAND KEY         1050            83     170/ 15     1015.0R
SOMBRERO KEY     NOT AVBL
LONG KEY         1100            83 83  160/ 11/ 12 1016.4R
MOLASSES REEF    1100            83 87  140/ 16/ 18 1015.7R
FOWEY ROCKS      NOT AVBL

$$



USA.gov is the U.S. government's official web portal to all federal, state and local government web resources and services.